CKS122 LTFM-FBSK

Flight info

Callsign CKS122
Flight time N/A
Altitude 29000
Route RATVU UT35 AYT UA16 TOMBI DCT KOMEZ M855 RASDA A16 MERPI/N0492F310 A16 CVO W8 KHG W601 DESDO P557 NUBAR M568 KASAB/N0498F320 M568 DEKUM UB12 GOM/N0493F330 UB607 BJA/N0493F320 UB527 KMI UA409 SOBTO/N0490F340 UA409 GESEN UT969 AKUTA UVBIX1D
Aircraft B77L/H-SDE1E2E3FGHIJ2J3J4J5M1RWXY/LB1D1

Departure

Time N/A
Airport İstanbul Airport (LTFM)

Arrival

Time 2026-04-27 22:40
Airport Sir Seretse Khama International Airport (FBSK)
Time Latitude Longitude Altitude Speed Heading
2026-04-27 22:18 -22.71171 26.35603 34079 ft 471 kts 199°
2026-04-27 22:18 -22.74303 26.34730 34066 ft 458 kts 199°
2026-04-27 22:18 -22.77371 26.33874 33777 ft 454 kts 199°
2026-04-27 22:18 -22.80421 26.33018 33323 ft 451 kts 199°
2026-04-27 22:19 -22.83407 26.32180 32868 ft 447 kts 199°
2026-04-27 22:19 -22.86406 26.31337 32414 ft 444 kts 199°
2026-04-27 22:19 -22.89381 26.30502 31959 ft 441 kts 199°
2026-04-27 22:19 -22.92346 26.29669 31502 ft 438 kts 199°
2026-04-27 22:20 -22.95285 26.28843 31043 ft 435 kts 199°
2026-04-27 22:20 -22.98210 26.28021 30572 ft 433 kts 199°
2026-04-27 22:20 -23.01126 26.27202 30097 ft 431 kts 199°
2026-04-27 22:20 -23.04028 26.26385 29572 ft 429 kts 199°
2026-04-27 22:21 -23.06914 26.25573 29077 ft 426 kts 199°
2026-04-27 22:21 -23.09780 26.24766 28606 ft 423 kts 199°
2026-04-27 22:21 -23.12577 26.23979 28157 ft 420 kts 199°
2026-04-27 22:21 -23.15394 26.23185 27703 ft 417 kts 199°
2026-04-27 22:22 -23.18192 26.22396 27248 ft 414 kts 199°
2026-04-27 22:22 -23.20973 26.21616 26803 ft 411 kts 198°
2026-04-27 22:22 -23.23753 26.20900 26361 ft 410 kts 197°
2026-04-27 22:22 -23.26532 26.20230 25919 ft 408 kts 196°
2026-04-27 22:23 -23.29296 26.19574 25482 ft 406 kts 196°
2026-04-27 22:23 -23.32052 26.18915 25033 ft 404 kts 196°
2026-04-27 22:23 -23.34783 26.18256 24574 ft 403 kts 196°
2026-04-27 22:23 -23.37516 26.17590 24134 ft 402 kts 196°
2026-04-27 22:24 -23.40249 26.16921 23696 ft 401 kts 195°
2026-04-27 22:24 -23.42969 26.16255 23210 ft 400 kts 195°
2026-04-27 22:24 -23.45673 26.15591 22746 ft 397 kts 195°
2026-04-27 22:24 -23.48359 26.14932 22319 ft 394 kts 195°
2026-04-27 22:25 -23.51027 26.14278 21895 ft 392 kts 195°
2026-04-27 22:25 -23.53676 26.13635 21441 ft 387 kts 194°
2026-04-27 22:25 -23.56366 26.13443 21015 ft 389 kts 175°
2026-04-27 22:25 -23.59006 26.13980 20649 ft 384 kts 172°
2026-04-27 22:26 -23.61616 26.14557 20247 ft 381 kts 172°
2026-04-27 22:26 -23.64186 26.15111 19855 ft 379 kts 173°
2026-04-27 22:26 -23.66765 26.15653 19451 ft 377 kts 173°
2026-04-27 22:26 -23.69336 26.16183 19048 ft 375 kts 173°
2026-04-27 22:27 -23.71892 26.16703 18638 ft 373 kts 173°
2026-04-27 22:27 -23.74441 26.17219 18212 ft 371 kts 173°
2026-04-27 22:27 -23.76975 26.17730 17786 ft 369 kts 173°
2026-04-27 22:27 -23.79492 26.18239 17379 ft 365 kts 173°
2026-04-27 22:28 -23.81979 26.18741 16972 ft 362 kts 173°
2026-04-27 22:28 -23.84447 26.19240 16596 ft 359 kts 173°
2026-04-27 22:28 -23.86891 26.19734 16207 ft 355 kts 173°
2026-04-27 22:28 -23.89315 26.20224 15825 ft 352 kts 173°
2026-04-27 22:29 -23.91713 26.20709 15445 ft 349 kts 173°
2026-04-27 22:29 -23.94094 26.21166 15078 ft 344 kts 176°
2026-04-27 22:29 -23.96468 26.21327 14706 ft 339 kts 182°
2026-04-27 22:29 -23.98816 26.21311 14343 ft 336 kts 184°
2026-04-27 22:30 -24.01111 26.21260 13986 ft 333 kts 184°
2026-04-27 22:30 -24.03425 26.21214 13575 ft 331 kts 183°
2026-04-27 22:30 -24.05717 26.21184 13191 ft 328 kts 183°
2026-04-27 22:30 -24.07988 26.21167 12813 ft 325 kts 183°
2026-04-27 22:31 -24.10242 26.21159 12379 ft 323 kts 182°
2026-04-27 22:31 -24.12483 26.21157 12012 ft 320 kts 182°
2026-04-27 22:31 -24.14700 26.21157 11656 ft 317 kts 182°
2026-04-27 22:31 -24.16893 26.21160 11304 ft 314 kts 182°
2026-04-27 22:32 -24.19063 26.21163 10960 ft 310 kts 182°
2026-04-27 22:32 -24.21210 26.21166 10616 ft 307 kts 182°
2026-04-27 22:32 -24.23323 26.21170 10410 ft 298 kts 182°
2026-04-27 22:32 -24.25363 26.21175 10274 ft 288 kts 183°
2026-04-27 22:33 -24.27333 26.21179 10138 ft 277 kts 183°
2026-04-27 22:33 -24.29217 26.21183 10012 ft 265 kts 183°
2026-04-27 22:33 -24.31065 26.21184 9743 ft 269 kts 183°
2026-04-27 22:33 -24.32958 26.21185 9459 ft 276 kts 183°
2026-04-27 22:34 -24.34892 26.21187 9138 ft 279 kts 182°
2026-04-27 22:34 -24.36810 26.21192 8989 ft 270 kts 183°
2026-04-27 22:34 -24.38678 26.21194 8617 ft 266 kts 185°
2026-04-27 22:34 -24.40381 26.20762 8502 ft 242 kts 211°
2026-04-27 22:35 -24.41666 26.19641 8199 ft 231 kts 230°
2026-04-27 22:35 -24.42541 26.18198 7888 ft 225 kts 242°
2026-04-27 22:35 -24.43277 26.16690 7602 ft 223 kts 243°
2026-04-27 22:35 -24.44003 26.15187 7322 ft 223 kts 243°
2026-04-27 22:36 -24.44733 26.13688 7027 ft 223 kts 242°
2026-04-27 22:36 -24.45459 26.12209 6889 ft 219 kts 242°
2026-04-27 22:36 -24.46194 26.10711 6631 ft 227 kts 242°
2026-04-27 22:36 -24.46949 26.09182 6348 ft 229 kts 242°
2026-04-27 22:37 -24.47707 26.07652 6036 ft 227 kts 242°
2026-04-27 22:37 -24.48444 26.06162 5735 ft 215 kts 242°
2026-04-27 22:37 -24.49115 26.04811 5482 ft 194 kts 242°
2026-04-27 22:37 -24.49728 26.03576 5231 ft 173 kts 242°
2026-04-27 22:38 -24.50273 26.02473 4998 ft 158 kts 242°
2026-04-27 22:38 -24.50792 26.01425 4800 ft 156 kts 242°
2026-04-27 22:38 -24.51315 26.00366 4604 ft 159 kts 242°
2026-04-27 22:38 -24.51844 25.99295 4399 ft 160 kts 242°
2026-04-27 22:39 -24.52374 25.98223 4162 ft 159 kts 242°
2026-04-27 22:39 -24.52899 25.97153 3930 ft 158 kts 242°
2026-04-27 22:39 -24.53421 25.96095 3769 ft 158 kts 242°
2026-04-27 22:39 -24.53953 25.95038 3574 ft 157 kts 242°
2026-04-27 22:40 -24.54474 25.93969 3346 ft 158 kts 242°
2026-04-27 22:40 -24.54817 25.93284 3296 ft 148 kts 242°
2026-04-27 22:40 -24.55235 25.92438 3298 ft 100 kts 241°
2026-04-27 22:40 -24.55479 25.91947 3301 ft 48 kts 241°
2026-04-27 22:41 -24.55633 25.91638 3300 ft 44 kts 241°
2026-04-27 22:41 -24.55742 25.91436 3300 ft 20 kts 214°
2026-04-27 22:41 -24.55847 25.91472 3301 ft 0 kts 151°
2026-04-27 22:42 -24.55871 25.91491 3301 ft 13 kts 137°
2026-04-27 22:42 -24.55861 25.91588 3301 ft 15 kts 62°
2026-04-27 22:42 -24.55813 25.91696 3301 ft 17 kts 77°
2026-04-27 22:42 -24.55899 25.91763 3300 ft 17 kts 158°
2026-04-27 22:43 -24.55953 25.91794 3300 ft 0 kts 151°